Regional Weather Roundup
Issued by NWS Upton, NY

Current Version | Previous Version | Graphics & Text | Print | Product List | Glossary Off
Versions: 1 2 3 4 5 6 7 8 9 10 11 12 13 14 15 16 17 18 19 20 21 22 23 24 25 26 27

000
ASUS41 KOKX 190108
RWROKX

REGIONAL WEATHER ROUNDUP
NATIONAL WEATHER SERVICE NEW YORK NY
900 PM EDT FRI AUG 18 2017

NOTE: "FAIR" INDICATES FEW OR NO CLOUDS BELOW 12,000 FEET WITH NO
SIGNIFICANT WEATHER AND/OR OBSTRUCTIONS TO VISIBILITY.

NYZ071-072-176-178-NJZ106-104-190200-
NEW YORK CITY METRO AREA

CITY           SKY/WX    TMP DP  RH WIND       PRES   REMARKS
Central Park   CLOUDY    73  71  93 SW8       29.80F
Bronx Bot Gard   N/A     73  70  88 SW1       29.78F
LaGuardia APRT CLOUDY    77  73  87 S10       29.76F
Kennedy INTL   CLOUDY    73  73 100 SW9       29.79F
Breezy Point     N/A     72 N/A N/A SW6         N/A
Newark/Liberty CLOUDY    75  71  87 SW10      29.77S
Teterboro      CLOUDY    74  71  91 SW7       29.76S
$$

NYZ177-179-078>081-190200-
LONG ISLAND NEW YORK

CITY           SKY/WX    TMP DP  RH WIND       PRES   REMARKS
Jones Beach      N/A     73 N/A N/A SW6G12      N/A
Matinecock PT    N/A     77 N/A N/A SW6G12      N/A
Farmingdale    CLOUDY    77  76  96 SW15G21   29.78F
MacArthur/ISP  LGT RAIN  77  77 100 S12G22    29.78F FOG
Shirley        RAIN      77  76  96 S13       29.80F FOG
Mt Sinai Harb    N/A    N/A N/A N/A S13G21      N/A
Westhampton    RAIN      75  72  90 S10       29.83F FOG
East Hampton   DRIZZLE   73  72  96 S7        29.82F
Montauk          N/A     74  73  97 S7        29.85S
$$

NYZ052-065-067-190200-
HUDSON VALLEY

CITY           SKY/WX    TMP DP  RH WIND       PRES   REMARKS
White Plains   CLOUDY    76  74  93 S5        29.77F FOG
Larchmont Harb   N/A     75 N/A N/A S10         N/A
Croton On Huds   N/A     73 N/A N/A MISG        N/A
Newburgh       CLOUDY    72  72 100 CALM      29.79F
Montgomery     CLOUDY    72  70  93 CALM      29.76F
Poughkeepsie   CLOUDY    74  72  93 CALM      29.76S
Albany         MOCLDY    76  73  91 VRB5      29.75S
$$

NJZ001-105-106-008-010-013-015-019>022-104-190200-
NEW JERSEY

CITY           SKY/WX    TMP DP  RH WIND       PRES   REMARKS
Newark/Liberty CLOUDY    75  71  87 SW10      29.77S
Teterboro      CLOUDY    74  71  91 SW7       29.76S
Caldwell       CLOUDY    72  72 100 CALM      29.77F
Somerville     CLOUDY    73  73 100 S5        29.77F
Linden         FAIR      74  70  88 CALM      29.78F
Perth Amboy      N/A     73 N/A N/A SW8         N/A
Sussex         CLOUDY    74  72  93 W3        29.77F
Andover          N/A     72  71  97 VRB3      29.79F
Trenton        CLOUDY    74  72  93 S6        29.79S
Millville      LGT RAIN  77  76  96 VRB5      29.82S
Atlantic City  TSTM      77  74  90 E9        29.82S FOG
Wrightstown    CLOUDY    73  72  94 SW8       29.77F
Toms River     LGT RAIN  73  72  96 CALM      29.81F
Belmar         LGT RAIN  74  71  91 S7        29.80F
$$

PAZ047>061-062-071-190200-
EASTERN PENNSYLVANIA

CITY           SKY/WX    TMP DP  RH WIND       PRES   REMARKS
Philadelphia   CLOUDY    75  73  93 SE12      29.81R
Allentown      CLOUDY    74  71  91 MISG      29.79S
Scranton       CLOUDY    76  71  85 CALM      29.79S
$$

CTZ002-004>006-009-010-012-RIZ004-006-007-MAZ004-011-015-190200-
SOUTHERN NEW ENGLAND
 IN CT

CITY           SKY/WX    TMP DP  RH WIND       PRES   REMARKS
Bradley INTL   LGT RAIN  77  76  96 S12       29.77F
Hartford       RAIN      77  77 100 S7        29.78F FOG
Danbury        CLOUDY    75  73  93 NE5       29.80F
Wtrbury/Oxford LGT RAIN  75  75 100 S8        29.83S VSB 3/4
Norwalk Harbor   N/A     75 N/A N/A SE2         N/A
Bridgeport     CLOUDY    77  75  93 S7        29.78F
Meriden        LGT RAIN  76  75  97 S8        29.80F FOG
New Haven      CLOUDY    76  74  93 S7        29.79F FOG
Chester        DRIZZLE   75  75 100 VRB7G15   29.83S
Groton         LGT RAIN  72  70  93 S6        29.82S
Wilimantic     LGT RAIN  76  76 100 S8        29.82R FOG

 IN RI

CITY           SKY/WX    TMP DP  RH WIND       PRES   REMARKS
Providence     LGT RAIN  75  75 100 S14       29.83F FOG
Block Island   LGT RAIN  73  72  96 MISG        N/A
Westerly       CLOUDY    74  72  93 S13G20    29.84S
 IN MA

CITY           SKY/WX    TMP DP  RH WIND       PRES   REMARKS
Boston         CLOUDY    74  73  97 S12       29.82R
Worcester      CLOUDY    73  72  96 S9        29.84R FOG
Westfield      CLOUDY    77  76  96 S8        29.78S
Provincetown   LGT RAIN  72  71  97 S16G23    29.86R FOG
Nantucket      CLOUDY    70  69  97 S15       29.90F
$$

ANZ330-335-338-340-345-350-353-355-190200-
COASTAL MARINE OBSERVATIONS


STATION/POSITION TIME  SKY/WX   TEMP    WIND        PRES    VSBY  WAVE
                                AIR SEA DIR/SP/G                  HT/PER
                 (UTC)          (F)     (DEG/KT/KT) (MB)    (MI)  (FT/S)
NY HARB ENTRANCE 0050            76 76  200/ 16/ 19 1008.2          4/ 5
GREAT SOUTH BAY  0030            77 79  200/ 14/ 17   N/A
23 SSW MONTAUK P 2350            74 71              1010.8          4/ 6
15 E BARNEGAT LI 0030               77                N/A           5/ 6
HUDSON CANYON    2350            77 74  190/ 17/ 19 1009.8          4/ 5
KINGS POINT      0024            76 74  220/  7/  8 1008.0
EXECUTION ROCKS  NOT AVBL
WESTERN LI SOUND NOT AVBL
CENTRAL LI SOUND NOT AVBL
EASTERN LI SOUND NOT AVBL
ROBBINS REEF     0030                   200/ 13/ 17 1008.5
$$


>>>>>>>>>>>>>>>>>>>>>>>>>>>> KEY <<<<<<<<<<<<<<<<<<<<<<<<<<<
>                                                          <
>     SKY/WX - Sky Condition/Present Weather               <
>     TMP    - Temperature in Fahrenheit                   <
>     DP     - Dew Point in Fahrenheit                     <
>     RH     - Relative Humidity in Percent                <
>     WIND   - Direction (from) and Speed in MPH           <
>     PRES   - Mean Sea Level Pressure (inches of Hg)      <
>     WCI    - Wind Chill Index                            <
>     VSB    - VISIBILITY IN MILES                         <
>     HX     - HEAT INDEX                                  <
>     TC     - TEMPERATURE IN CELSIUS                      <
>     VRB    - VARIABLE WIND DIRECTION                     <
>                                                          <
>>>>>>>>>>>>>>>>>>>>>>>>>>>> KEY <<<<<<<<<<<<<<<<<<<<<<<<<<<




USA.gov is the U.S. government's official web portal to all federal, state and local government web resources and services.